Starlink 32908

operational
NORAD ID: 63084 Int'l Des: 2025-037 Owner: SPXS Country: US Constellation: starlink
LEOCIRCULAR

About Starlink 32908

Description loading...

Live Position

Loading 3D Globe...

Upcoming Passes

Altitude History

Altitude vs Time

uPlot chart will show altitude changes over time

Two-Line Element Set

1 63084U 25037H 25259.18740767 .00006856 00000-0 58185-3 0 9996
2 63084 70.0014 74.4231 0002958 273.8826 86.1995 14.98330775 32321
Epoch: Sep 16, 2025 • Age: 9 hours

Current Status

Altitude 576.9 km
Velocity 7.57 km/s
Sub-Earth Point 32.15°N, 47.28°E
Launch Date Feb 23, 2025
Age 0.5 years
Type internet

Technical Details

Classification Payload
Mass 730.00 kg
Dry Mass 700.00 kg
Total Mass 730.00 kg
Length 0.30 m
Diameter 4.10 m
Span 29.00 m
Shape Box + pan
Manufacturer SPXS
Bus Type Starlink V2M
Phase Status In Orbit
Owner/State SPXS/US

Large Constellations

Loading constellations...